<?xml version="1.0" encoding="UTF-8" standalone="no" ?>
<gpx xmlns="http://www.topografix.com/GPX/1/1" xmlns:xsi="http://www.w3.org/2001/XMLSchema-instance" xsi:schemaLocation="http://www.topografix.com/GPX/1/1 http://www.topografix.com/GPX/1/1/gpx.xsd" version="1.1" creator="VisuGPX - https://www.visugpx.com">
  <metadata>
    <name>herzeele rando</name>
    <desc><![CDATA[
]]></desc>
  </metadata>
  <trk>
    <name><![CDATA[track]]></name>
    <trkseg>
      <trkpt lat="50.8864" lon="2.53142">
        <ele>11</ele>
        <time>2008-09-14T11:54:50Z</time>
      </trkpt>
      <trkpt lat="50.88663" lon="2.53181">
        <ele>11</ele>
        <time>2008-09-14T11:54:50Z</time>
      </trkpt>
      <trkpt lat="50.88667" lon="2.53176">
        <ele>11</ele>
        <time>2008-09-14T11:54:50Z</time>
      </trkpt>
      <trkpt lat="50.88685" lon="2.53186">
        <ele>11</ele>
        <time>2008-09-14T11:54:50Z</time>
      </trkpt>
      <trkpt lat="50.88725" lon="2.53266">
        <ele>11</ele>
        <time>2008-09-14T11:54:50Z</time>
      </trkpt>
      <trkpt lat="50.88741" lon="2.53245">
        <ele>11</ele>
        <time>2008-09-14T11:54:50Z</time>
      </trkpt>
      <trkpt lat="50.88765" lon="2.53243">
        <ele>11</ele>
        <time>2008-09-14T11:54:50Z</time>
      </trkpt>
      <trkpt lat="50.88843" lon="2.53271">
        <ele>12</ele>
        <time>2008-09-14T11:54:50Z</time>
      </trkpt>
      <trkpt lat="50.88886" lon="2.5327">
        <ele>12</ele>
        <time>2008-09-14T11:54:50Z</time>
      </trkpt>
      <trkpt lat="50.88923" lon="2.53239">
        <ele>12</ele>
        <time>2008-09-14T11:54:50Z</time>
      </trkpt>
      <trkpt lat="50.89012" lon="2.53158">
        <ele>12</ele>
        <time>2008-09-14T11:54:50Z</time>
      </trkpt>
      <trkpt lat="50.88856" lon="2.52898">
        <ele>13</ele>
        <time>2008-09-14T11:54:50Z</time>
      </trkpt>
      <trkpt lat="50.88837" lon="2.52858">
        <ele>13</ele>
        <time>2008-09-14T11:54:50Z</time>
      </trkpt>
      <trkpt lat="50.88867" lon="2.52818">
        <ele>13</ele>
        <time>2008-09-14T11:54:50Z</time>
      </trkpt>
      <trkpt lat="50.88927" lon="2.52755">
        <ele>13</ele>
        <time>2008-09-14T11:54:50Z</time>
      </trkpt>
      <trkpt lat="50.88986" lon="2.52676">
        <ele>13</ele>
        <time>2008-09-14T11:54:50Z</time>
      </trkpt>
      <trkpt lat="50.89091" lon="2.52614">
        <ele>13</ele>
        <time>2008-09-14T11:54:50Z</time>
      </trkpt>
      <trkpt lat="50.89271" lon="2.52462">
        <ele>11</ele>
        <time>2008-09-14T11:54:50Z</time>
      </trkpt>
      <trkpt lat="50.89435" lon="2.5229">
        <ele>11</ele>
        <time>2008-09-14T11:54:50Z</time>
      </trkpt>
      <trkpt lat="50.89572" lon="2.52091">
        <ele>12</ele>
        <time>2008-09-14T11:54:50Z</time>
      </trkpt>
      <trkpt lat="50.89642" lon="2.51993">
        <ele>12</ele>
        <time>2008-09-14T11:54:50Z</time>
      </trkpt>
      <trkpt lat="50.89632" lon="2.51941">
        <ele>12</ele>
        <time>2008-09-14T11:54:50Z</time>
      </trkpt>
      <trkpt lat="50.8965" lon="2.51754">
        <ele>12</ele>
        <time>2008-09-14T11:54:50Z</time>
      </trkpt>
      <trkpt lat="50.89649" lon="2.51635">
        <ele>11</ele>
        <time>2008-09-14T11:54:50Z</time>
      </trkpt>
      <trkpt lat="50.89685" lon="2.51501">
        <ele>11</ele>
        <time>2008-09-14T11:54:50Z</time>
      </trkpt>
      <trkpt lat="50.89746" lon="2.51412">
        <ele>11</ele>
        <time>2008-09-14T11:54:50Z</time>
      </trkpt>
      <trkpt lat="50.8975" lon="2.51397">
        <ele>11</ele>
        <time>2008-09-14T11:54:50Z</time>
      </trkpt>
      <trkpt lat="50.89773" lon="2.51409">
        <ele>11</ele>
        <time>2008-09-14T11:54:50Z</time>
      </trkpt>
      <trkpt lat="50.89804" lon="2.51425">
        <ele>11</ele>
        <time>2008-09-14T11:54:50Z</time>
      </trkpt>
      <trkpt lat="50.89864" lon="2.51537">
        <ele>11</ele>
        <time>2008-09-14T11:54:50Z</time>
      </trkpt>
      <trkpt lat="50.89918" lon="2.51576">
        <ele>11</ele>
        <time>2008-09-14T11:54:50Z</time>
      </trkpt>
      <trkpt lat="50.89959" lon="2.51595">
        <ele>11</ele>
        <time>2008-09-14T11:54:50Z</time>
      </trkpt>
      <trkpt lat="50.90046" lon="2.51716">
        <ele>11</ele>
        <time>2008-09-14T11:54:50Z</time>
      </trkpt>
      <trkpt lat="50.90073" lon="2.51783">
        <ele>11</ele>
        <time>2008-09-14T11:54:50Z</time>
      </trkpt>
      <trkpt lat="50.90096" lon="2.51897">
        <ele>10</ele>
        <time>2008-09-14T11:54:50Z</time>
      </trkpt>
      <trkpt lat="50.90095" lon="2.52013">
        <ele>11</ele>
        <time>2008-09-14T11:54:50Z</time>
      </trkpt>
      <trkpt lat="50.90095" lon="2.52083">
        <ele>11</ele>
        <time>2008-09-14T11:54:50Z</time>
      </trkpt>
      <trkpt lat="50.89934" lon="2.52161">
        <ele>11</ele>
        <time>2008-09-14T11:54:50Z</time>
      </trkpt>
      <trkpt lat="50.89823" lon="2.52222">
        <ele>11</ele>
        <time>2008-09-14T11:54:50Z</time>
      </trkpt>
      <trkpt lat="50.89736" lon="2.52308">
        <ele>11</ele>
        <time>2008-09-14T11:54:50Z</time>
      </trkpt>
      <trkpt lat="50.89663" lon="2.524">
        <ele>10</ele>
        <time>2008-09-14T11:54:50Z</time>
      </trkpt>
      <trkpt lat="50.89773" lon="2.52592">
        <ele>10</ele>
        <time>2008-09-14T11:54:50Z</time>
      </trkpt>
      <trkpt lat="50.89817" lon="2.52689">
        <ele>9</ele>
        <time>2008-09-14T11:54:50Z</time>
      </trkpt>
      <trkpt lat="50.89871" lon="2.52782">
        <ele>8</ele>
        <time>2008-09-14T11:54:50Z</time>
      </trkpt>
      <trkpt lat="50.89878" lon="2.52809">
        <ele>8</ele>
        <time>2008-09-14T11:54:50Z</time>
      </trkpt>
      <trkpt lat="50.89889" lon="2.53052">
        <ele>7</ele>
        <time>2008-09-14T11:54:50Z</time>
      </trkpt>
      <trkpt lat="50.89909" lon="2.53086">
        <ele>7</ele>
        <time>2008-09-14T11:54:50Z</time>
      </trkpt>
      <trkpt lat="50.89953" lon="2.53142">
        <ele>7</ele>
        <time>2008-09-14T11:54:50Z</time>
      </trkpt>
      <trkpt lat="50.89958" lon="2.53164">
        <ele>7</ele>
        <time>2008-09-14T11:54:50Z</time>
      </trkpt>
      <trkpt lat="50.89947" lon="2.53193">
        <ele>7</ele>
        <time>2008-09-14T11:54:50Z</time>
      </trkpt>
      <trkpt lat="50.89898" lon="2.53295">
        <ele>8</ele>
        <time>2008-09-14T11:54:50Z</time>
      </trkpt>
      <trkpt lat="50.89863" lon="2.53373">
        <ele>9</ele>
        <time>2008-09-14T11:54:50Z</time>
      </trkpt>
      <trkpt lat="50.89799" lon="2.53302">
        <ele>10</ele>
        <time>2008-09-14T11:54:50Z</time>
      </trkpt>
      <trkpt lat="50.8973" lon="2.53269">
        <ele>11</ele>
        <time>2008-09-14T11:54:50Z</time>
      </trkpt>
      <trkpt lat="50.89584" lon="2.53252">
        <ele>10</ele>
        <time>2008-09-14T11:54:50Z</time>
      </trkpt>
      <trkpt lat="50.89519" lon="2.53278">
        <ele>10</ele>
        <time>2008-09-14T11:54:50Z</time>
      </trkpt>
      <trkpt lat="50.89462" lon="2.53284">
        <ele>11</ele>
        <time>2008-09-14T11:54:50Z</time>
      </trkpt>
      <trkpt lat="50.89371" lon="2.53306">
        <ele>11</ele>
        <time>2008-09-14T11:54:50Z</time>
      </trkpt>
      <trkpt lat="50.89309" lon="2.53228">
        <ele>11</ele>
        <time>2008-09-14T11:54:50Z</time>
      </trkpt>
      <trkpt lat="50.89209" lon="2.5317">
        <ele>12</ele>
        <time>2008-09-14T11:54:50Z</time>
      </trkpt>
      <trkpt lat="50.89162" lon="2.53154">
        <ele>12</ele>
        <time>2008-09-14T11:54:50Z</time>
      </trkpt>
      <trkpt lat="50.89089" lon="2.53142">
        <ele>12</ele>
        <time>2008-09-14T11:54:50Z</time>
      </trkpt>
      <trkpt lat="50.89051" lon="2.53142">
        <ele>12</ele>
        <time>2008-09-14T11:54:50Z</time>
      </trkpt>
      <trkpt lat="50.89038" lon="2.53155">
        <ele>12</ele>
        <time>2008-09-14T11:54:50Z</time>
      </trkpt>
      <trkpt lat="50.89044" lon="2.5318">
        <ele>12</ele>
        <time>2008-09-14T11:54:50Z</time>
      </trkpt>
      <trkpt lat="50.89097" lon="2.53298">
        <ele>12</ele>
        <time>2008-09-14T11:54:50Z</time>
      </trkpt>
      <trkpt lat="50.89141" lon="2.53392">
        <ele>12</ele>
        <time>2008-09-14T11:54:50Z</time>
      </trkpt>
      <trkpt lat="50.89187" lon="2.5359">
        <ele>12</ele>
        <time>2008-09-14T11:54:50Z</time>
      </trkpt>
      <trkpt lat="50.89218" lon="2.53705">
        <ele>12</ele>
        <time>2008-09-14T11:54:50Z</time>
      </trkpt>
      <trkpt lat="50.89285" lon="2.53827">
        <ele>11</ele>
        <time>2008-09-14T11:54:50Z</time>
      </trkpt>
      <trkpt lat="50.89336" lon="2.53903">
        <ele>11</ele>
        <time>2008-09-14T11:54:50Z</time>
      </trkpt>
      <trkpt lat="50.89382" lon="2.54014">
        <ele>11</ele>
        <time>2008-09-14T11:54:50Z</time>
      </trkpt>
      <trkpt lat="50.89353" lon="2.54041">
        <ele>10</ele>
        <time>2008-09-14T11:54:50Z</time>
      </trkpt>
      <trkpt lat="50.89306" lon="2.54084">
        <ele>9</ele>
        <time>2008-09-14T11:54:50Z</time>
      </trkpt>
      <trkpt lat="50.89243" lon="2.54156">
        <ele>8</ele>
        <time>2008-09-14T11:54:50Z</time>
      </trkpt>
      <trkpt lat="50.89194" lon="2.54269">
        <ele>10</ele>
        <time>2008-09-14T11:54:50Z</time>
      </trkpt>
      <trkpt lat="50.89121" lon="2.54186">
        <ele>12</ele>
        <time>2008-09-14T11:54:50Z</time>
      </trkpt>
      <trkpt lat="50.89014" lon="2.54026">
        <ele>13</ele>
        <time>2008-09-14T11:54:50Z</time>
      </trkpt>
      <trkpt lat="50.8896" lon="2.54132">
        <ele>12</ele>
        <time>2008-09-14T11:54:50Z</time>
      </trkpt>
      <trkpt lat="50.8896" lon="2.54177">
        <ele>12</ele>
        <time>2008-09-14T11:54:50Z</time>
      </trkpt>
      <trkpt lat="50.88993" lon="2.54306">
        <ele>11</ele>
        <time>2008-09-14T11:54:50Z</time>
      </trkpt>
      <trkpt lat="50.8902" lon="2.54495">
        <ele>10</ele>
        <time>2008-09-14T11:54:50Z</time>
      </trkpt>
      <trkpt lat="50.89064" lon="2.54639">
        <ele>10</ele>
        <time>2008-09-14T11:54:50Z</time>
      </trkpt>
      <trkpt lat="50.89073" lon="2.54675">
        <ele>10</ele>
        <time>2008-09-14T11:54:50Z</time>
      </trkpt>
      <trkpt lat="50.89105" lon="2.54756">
        <ele>11</ele>
        <time>2008-09-14T11:54:50Z</time>
      </trkpt>
      <trkpt lat="50.89111" lon="2.54786">
        <ele>10</ele>
        <time>2008-09-14T11:54:50Z</time>
      </trkpt>
      <trkpt lat="50.89121" lon="2.54905">
        <ele>9</ele>
        <time>2008-09-14T11:54:50Z</time>
      </trkpt>
      <trkpt lat="50.89146" lon="2.55031">
        <ele>8</ele>
        <time>2008-09-14T11:54:50Z</time>
      </trkpt>
      <trkpt lat="50.89142" lon="2.55064">
        <ele>7</ele>
        <time>2008-09-14T11:54:50Z</time>
      </trkpt>
      <trkpt lat="50.89178" lon="2.5517">
        <ele>7</ele>
        <time>2008-09-14T11:54:50Z</time>
      </trkpt>
      <trkpt lat="50.89215" lon="2.55245">
        <ele>7</ele>
        <time>2008-09-14T11:54:50Z</time>
      </trkpt>
      <trkpt lat="50.89222" lon="2.55308">
        <ele>8</ele>
        <time>2008-09-14T11:54:50Z</time>
      </trkpt>
      <trkpt lat="50.89205" lon="2.55388">
        <ele>10</ele>
        <time>2008-09-14T11:54:50Z</time>
      </trkpt>
      <trkpt lat="50.89212" lon="2.55546">
        <ele>11</ele>
        <time>2008-09-14T11:54:50Z</time>
      </trkpt>
      <trkpt lat="50.89191" lon="2.5575">
        <ele>11</ele>
        <time>2008-09-14T11:54:50Z</time>
      </trkpt>
      <trkpt lat="50.89198" lon="2.55872">
        <ele>11</ele>
        <time>2008-09-14T11:54:50Z</time>
      </trkpt>
      <trkpt lat="50.89257" lon="2.56107">
        <ele>11</ele>
        <time>2008-09-14T11:54:50Z</time>
      </trkpt>
      <trkpt lat="50.89266" lon="2.56188">
        <ele>11</ele>
        <time>2008-09-14T11:54:50Z</time>
      </trkpt>
      <trkpt lat="50.89257" lon="2.562">
        <ele>11</ele>
        <time>2008-09-14T11:54:50Z</time>
      </trkpt>
      <trkpt lat="50.89181" lon="2.56163">
        <ele>11</ele>
        <time>2008-09-14T11:54:50Z</time>
      </trkpt>
      <trkpt lat="50.89123" lon="2.56092">
        <ele>12</ele>
        <time>2008-09-14T11:54:50Z</time>
      </trkpt>
      <trkpt lat="50.89057" lon="2.56067">
        <ele>12</ele>
        <time>2008-09-14T11:54:50Z</time>
      </trkpt>
      <trkpt lat="50.88955" lon="2.55975">
        <ele>12</ele>
        <time>2008-09-14T11:54:50Z</time>
      </trkpt>
      <trkpt lat="50.88933" lon="2.55943">
        <ele>12</ele>
        <time>2008-09-14T11:54:50Z</time>
      </trkpt>
      <trkpt lat="50.88913" lon="2.55856">
        <ele>12</ele>
        <time>2008-09-14T11:54:50Z</time>
      </trkpt>
      <trkpt lat="50.88875" lon="2.55769">
        <ele>11</ele>
        <time>2008-09-14T11:54:50Z</time>
      </trkpt>
      <trkpt lat="50.88768" lon="2.5568">
        <ele>11</ele>
        <time>2008-09-14T11:54:50Z</time>
      </trkpt>
      <trkpt lat="50.88714" lon="2.55606">
        <ele>11</ele>
        <time>2008-09-14T11:54:50Z</time>
      </trkpt>
      <trkpt lat="50.88697" lon="2.55558">
        <ele>11</ele>
        <time>2008-09-14T11:54:50Z</time>
      </trkpt>
      <trkpt lat="50.88842" lon="2.55387">
        <ele>11</ele>
        <time>2008-09-14T11:54:50Z</time>
      </trkpt>
      <trkpt lat="50.88934" lon="2.55249">
        <ele>9</ele>
        <time>2008-09-14T11:54:50Z</time>
      </trkpt>
      <trkpt lat="50.88964" lon="2.55189">
        <ele>8</ele>
        <time>2008-09-14T11:54:50Z</time>
      </trkpt>
      <trkpt lat="50.89016" lon="2.55145">
        <ele>7</ele>
        <time>2008-09-14T11:54:50Z</time>
      </trkpt>
      <trkpt lat="50.89054" lon="2.55127">
        <ele>7</ele>
        <time>2008-09-14T11:54:50Z</time>
      </trkpt>
      <trkpt lat="50.89102" lon="2.55063">
        <ele>7</ele>
        <time>2008-09-14T11:54:50Z</time>
      </trkpt>
      <trkpt lat="50.88987" lon="2.54918">
        <ele>9</ele>
        <time>2008-09-14T11:54:50Z</time>
      </trkpt>
      <trkpt lat="50.88916" lon="2.54871">
        <ele>11</ele>
        <time>2008-09-14T11:54:50Z</time>
      </trkpt>
      <trkpt lat="50.88839" lon="2.54854">
        <ele>12</ele>
        <time>2008-09-14T11:54:50Z</time>
      </trkpt>
      <trkpt lat="50.88766" lon="2.54878">
        <ele>13</ele>
        <time>2008-09-14T11:54:50Z</time>
      </trkpt>
      <trkpt lat="50.88655" lon="2.54884">
        <ele>13</ele>
        <time>2008-09-14T11:54:50Z</time>
      </trkpt>
      <trkpt lat="50.88535" lon="2.54913">
        <ele>13</ele>
        <time>2008-09-14T11:54:50Z</time>
      </trkpt>
      <trkpt lat="50.8853" lon="2.54925">
        <ele>13</ele>
        <time>2008-09-14T11:54:50Z</time>
      </trkpt>
      <trkpt lat="50.8849" lon="2.54857">
        <ele>13</ele>
        <time>2008-09-14T11:54:50Z</time>
      </trkpt>
      <trkpt lat="50.88471" lon="2.5485">
        <ele>13</ele>
        <time>2008-09-14T11:54:50Z</time>
      </trkpt>
      <trkpt lat="50.88444" lon="2.54874">
        <ele>14</ele>
        <time>2008-09-14T11:54:50Z</time>
      </trkpt>
      <trkpt lat="50.88365" lon="2.54817">
        <ele>14</ele>
        <time>2008-09-14T11:54:50Z</time>
      </trkpt>
      <trkpt lat="50.88308" lon="2.54698">
        <ele>15</ele>
        <time>2008-09-14T11:54:50Z</time>
      </trkpt>
      <trkpt lat="50.88168" lon="2.54605">
        <ele>16</ele>
        <time>2008-09-14T11:54:50Z</time>
      </trkpt>
      <trkpt lat="50.8809" lon="2.54575">
        <ele>16</ele>
        <time>2008-09-14T11:54:50Z</time>
      </trkpt>
      <trkpt lat="50.88039" lon="2.54575">
        <ele>16</ele>
        <time>2008-09-14T11:54:50Z</time>
      </trkpt>
      <trkpt lat="50.87935" lon="2.54425">
        <ele>16</ele>
        <time>2008-09-14T11:54:50Z</time>
      </trkpt>
      <trkpt lat="50.88026" lon="2.54315">
        <ele>15</ele>
        <time>2008-09-14T11:54:50Z</time>
      </trkpt>
      <trkpt lat="50.88097" lon="2.54202">
        <ele>14</ele>
        <time>2008-09-14T11:54:50Z</time>
      </trkpt>
      <trkpt lat="50.88178" lon="2.54068">
        <ele>13</ele>
        <time>2008-09-14T11:54:50Z</time>
      </trkpt>
      <trkpt lat="50.88284" lon="2.53957">
        <ele>12</ele>
        <time>2008-09-14T11:54:50Z</time>
      </trkpt>
      <trkpt lat="50.88357" lon="2.53855">
        <ele>12</ele>
        <time>2008-09-14T11:54:50Z</time>
      </trkpt>
      <trkpt lat="50.88436" lon="2.5373">
        <ele>11</ele>
        <time>2008-09-14T11:54:50Z</time>
      </trkpt>
      <trkpt lat="50.88452" lon="2.53726">
        <ele>11</ele>
        <time>2008-09-14T11:54:50Z</time>
      </trkpt>
      <trkpt lat="50.88468" lon="2.53733">
        <ele>11</ele>
        <time>2008-09-14T11:54:50Z</time>
      </trkpt>
      <trkpt lat="50.88504" lon="2.53775">
        <ele>11</ele>
        <time>2008-09-14T11:54:50Z</time>
      </trkpt>
      <trkpt lat="50.88604" lon="2.53655">
        <ele>11</ele>
        <time>2008-09-14T11:54:50Z</time>
      </trkpt>
      <trkpt lat="50.88623" lon="2.53637">
        <ele>11</ele>
        <time>2008-09-14T11:54:50Z</time>
      </trkpt>
      <trkpt lat="50.88645" lon="2.53569">
        <ele>11</ele>
        <time>2008-09-14T11:54:50Z</time>
      </trkpt>
      <trkpt lat="50.88562" lon="2.53561">
        <ele>11</ele>
        <time>2008-09-14T11:54:50Z</time>
      </trkpt>
      <trkpt lat="50.88623" lon="2.53444">
        <ele>11</ele>
        <time>2008-09-14T11:54:50Z</time>
      </trkpt>
      <trkpt lat="50.88648" lon="2.53459">
        <ele>11</ele>
        <time>2008-09-14T11:54:50Z</time>
      </trkpt>
      <trkpt lat="50.88705" lon="2.53327">
        <ele>10</ele>
        <time>2008-09-14T11:54:50Z</time>
      </trkpt>
      <trkpt lat="50.88614" lon="2.53234">
        <ele>11</ele>
        <time>2008-09-14T11:54:50Z</time>
      </trkpt>
      <trkpt lat="50.88638" lon="2.53141">
        <ele>11</ele>
        <time>2008-09-14T11:54:50Z</time>
      </trkpt>
      <trkpt lat="50.88637" lon="2.53141">
        <ele>11</ele>
        <time>2008-09-14T11:54:50Z</time>
      </trkpt>
    </trkseg>
  </trk>
</gpx>